IZ2XSB-13 Weather Reports


time (UTC)temp
C
wind
direction
speed
KPH
gust
KPH
rain 1hr
cm
rain 24hr
cm
rain mn
cm
humidity
%
barometer
mb
20260503072821 15 128 4.8 11.3 0.00 0.00 0.00 60 1020.6
20260503072348 15 140 3.2 9.7 0.00 0.00 0.00 62 1020.6
20260503071825 15 165 4.8 8.0 0.00 0.00 0.00 61 1020.7
20260503071323 15 136 4.8 6.4 0.00 0.00 0.00 63 1020.7
20260503070821 15 115 1.6 9.7 0.00 0.00 0.00 61 1020.8
20260503070321 15 95 4.8 11.3 0.00 0.00 0.00 61 1020.8
20260503060330 15 109 1.6 6.4 0.00 0.00 0.00 63 1020.9
20260503054826 14 111 3.2 4.8 0.00 0.00 0.00 68 1020.8
20260503054325 14 34 3.2 4.8 0.00 0.00 0.00 65 1020.9
20260503053826 14 33 3.2 6.4 0.00 0.00 0.00 65 1020.7
20260503053343 14 86 3.2 8.0 0.00 0.00 0.00 67 1020.8
20260503052821 14 263 4.8 9.7 0.00 0.00 0.00 62 1020.8
20260503052317 14 254 6.4 14.5 0.00 0.00 0.00 63 1020.8
20260503051817 14 270 6.4 14.5 0.00 0.00 0.00 62 1020.8
20260503051336 13 254 4.8 8.0 0.00 0.00 0.00 63 1020.7
20260503050815 13 208 4.8 8.0 0.00 0.00 0.00 63 1020.8
20260503050315 13 250 3.2 6.4 0.00 0.00 0.00 66 1020.8
20260503045814 13 311 3.2 6.4 0.00 0.00 0.00 66 1020.9
20260503045334 12 316 3.2 8.0 0.00 0.00 0.00 66 1020.9
20260503044814 12 279 6.4 8.0 0.00 0.00 0.00 66 1021.0
20260503044314 12 282 6.4 8.0 0.00 0.00 0.00 66 1020.8
20260503043815 12 278 6.4 8.0 0.00 0.00 0.00 65 1020.9
20260503043333 13 286 3.2 6.4 0.00 0.00 0.00 65 1021.0
20260503042833 13 298 3.2 6.4 0.00 0.00 0.00 64 1021.0
20260503042333 13 284 3.2 8.0 0.00 0.00 0.00 63 1020.9
20260503041832 13 183 3.2 9.7 0.00 0.00 0.00 63 1020.9
20260503041332 13 333 6.4 11.3 0.00 0.00 0.00 64 1021.0
20260503040831 13 265 8.0 14.5 0.00 0.00 0.00 64 1020.9
20260503040331 13 271 9.7 14.5 0.00 0.00 0.00 64 1020.8
20260503035829 13 271 8.0 11.3 0.00 0.00 0.00 64 1020.9
20260503035330 13 281 6.4 11.3 0.00 0.00 0.00 64 1020.9
20260503034829 13 275 6.4 11.3 0.00 0.00 0.00 64 1020.8
20260503034330 13 305 3.2 8.0 0.00 0.00 0.00 64 1020.8
20260503033849 13 121 3.2 8.0 0.00 0.00 0.00 64 1021.0
20260503033327 13 5 3.2 8.0 0.00 0.00 0.00 65 1021.0
20260503032827 13 304 4.8 11.3 0.00 0.00 0.00 65 1020.9
20260503032347 13 291 8.0 11.3 0.00 0.00 0.00 65 1021.0
20260503031826 13 267 8.0 9.7 0.00 0.00 0.00 64 1021.1
20260503031325 13 284 6.4 8.0 0.00 0.00 0.00 65 1021.1
20260503030825 13 318 3.2 8.0 0.00 0.00 0.00 64 1021.1
20260503030325 13 292 3.2 8.0 0.00 0.00 0.00 64 1021.2
20260503025826 13 323 4.8 8.0 0.00 0.00 0.00 64 1021.1
20260503025325 13 335 3.2 6.4 0.00 0.00 0.00 64 1021.2
20260503024825 13 310 3.2 6.4 0.00 0.00 0.00 64 1021.2
20260503024324 13 326 4.8 6.4 0.00 0.00 0.00 63 1021.2
20260503023823 13 283 4.8 6.4 0.00 0.00 0.00 63 1021.3
20260503023339 13 275 4.8 6.4 0.00 0.00 0.00 63 1021.3
20260503022818 13 263 4.8 6.4 0.00 0.00 0.00 63 1021.3
20260503022338 13 315 3.2 6.4 0.00 0.00 0.00 63 1021.3
20260503021816 13 272 1.6 8.0 0.00 0.00 0.00 62 1021.3
20260503021315 13 289 4.8 8.0 0.00 0.00 0.00 64 1021.4
20260503020815 13 284 4.8 11.3 0.00 0.00 0.00 63 1021.3
20260503020316 13 316 6.4 11.3 0.00 0.00 0.00 64 1021.4
20260503015816 13 298 9.7 14.5 0.00 0.00 0.00 63 1021.3
20260503015317 13 294 9.7 14.5 0.00 0.00 0.00 64 1021.4
20260503014815 13 290 4.8 6.4 0.00 0.00 0.00 65 1021.4
20260503014315 13 275 3.2 4.8 0.00 0.00 0.00 65 1021.3
20260503013833 13 284 3.2 6.4 0.00 0.00 0.00 64 1021.5
20260503013333 13 315 3.2 6.4 0.00 0.00 0.00 65 1021.5
20260503012815 13 288 4.8 6.4 0.00 0.00 0.00 65 1021.5
20260503012334 13 291 4.8 6.4 0.00 0.00 0.00 65 1021.5
20260503011832 13 305 3.2 6.4 0.00 0.00 0.00 65 1021.6
20260503011330 13 296 1.6 6.4 0.00 0.00 0.00 63 1021.6
20260503010829 13 315 3.2 4.8 0.00 0.00 0.00 63 1021.7
20260503010326 13 314 1.6 4.8 0.00 0.00 0.00 62 1021.7
20260503005824 13 319 3.2 4.8 0.00 0.00 0.00 63 1021.7
20260503005322 13 295 1.6 4.8 0.00 0.00 0.00 62 1021.8
20260503004822 13 293 3.2 4.8 0.00 0.00 0.00 63 1021.8
20260503004342 13 300 3.2 4.8 0.00 0.00 0.00 63 1022.0
20260503003820 13 326 3.2 6.4 0.00 0.00 0.00 62 1021.9
20260503003320 13 316 3.2 6.4 0.00 0.00 0.00 62 1021.9
20260503002818 13 336 3.2 6.4 0.00 0.00 0.00 62 1021.9
20260503002317 13 312 4.8 6.4 0.00 0.00 0.00 62 1022.0
20260503001836 13 279 3.2 4.8 0.00 0.00 0.00 63 1022.0
20260503001335 13 277 3.2 4.8 0.00 0.00 0.00 63 1022.2
20260503000853 13 96 1.6 4.8 0.00 0.00 0.00 62 1022.2
20260503000322 13 351 3.2 4.8 0.00 0.00 0.00 62 1022.3
20260502235821 13 292 3.2 4.8 0.00 0.00 0.00 62 1022.3
20260502235319 13 311 3.2 4.8 0.00 0.00 0.00 62 1022.3
20260502234829 13 308 1.6 3.2 0.00 0.00 0.00 61 1022.4
20260502234328 13 337 3.2 3.2 0.00 0.00 0.00 60 1022.4
20260502233826 13 11 1.6 3.2 0.00 0.00 0.00 59 1022.5
20260502233324 13 312 1.6 6.4 0.00 0.00 0.00 59 1022.6
20260502232841 13 350 1.6 6.4 0.00 0.00 0.00 59 1022.6
20260502232338 13 308 3.2 4.8 0.00 0.00 0.00 59 1022.6
20260502231824 13 296 3.2 4.8 0.00 0.00 0.00 58 1022.6
20260502231332 13 300 3.2 4.8 0.00 0.00 0.00 58 1022.6
20260502230832 13 281 3.2 4.8 0.00 0.00 0.00 58 1022.8
20260502230321 13 284 3.2 4.8 0.00 0.00 0.00 59 1022.7
20260502225821 13 302 3.2 4.8 0.00 0.00 0.00 59 1022.8
20260502225321 13 340 3.2 4.8 0.00 0.00 0.00 58 1022.8
20260502224819 13 344 3.2 4.8 0.00 0.00 0.00 57 1022.8
20260502224318 14 309 3.2 4.8 0.00 0.00 0.00 57 1022.8
20260502223816 14 306 1.6 4.8 0.00 0.00 0.00 56 1022.8
20260502223314 14 283 3.2 4.8 0.00 0.00 0.00 57 1022.9
20260502222813 14 277 1.6 4.8 0.00 0.00 0.00 57 1022.9
20260502222332 14 281 3.2 6.4 0.00 0.00 0.00 55 1022.9
20260502221829 14 250 3.2 6.4 0.00 0.00 0.00 55 1022.9
20260502221327 14 279 3.2 4.8 0.00 0.00 0.00 56 1022.9
20260502220829 14 305 1.6 4.8 0.00 0.00 0.00 55 1022.8
20260502220358 14 305 3.2 4.8 0.00 0.00 0.00 54 1022.9
20260502215831 14 302 1.6 4.8 0.00 0.00 0.00 55 1022.8
20260502215313 14 282 1.6 4.8 0.00 0.00 0.00 55 1022.8
20260502214812 14 289 3.2 4.8 0.00 0.00 0.00 57 1022.8
20260502214312 14 321 3.2 4.8 0.00 0.00 0.00 55 1022.8
20260502213813 14 261 3.2 4.8 0.00 0.00 0.00 56 1022.8
20260502213341 14 318 1.6 4.8 0.00 0.00 0.00 55 1022.8
20260502212819 15 313 3.2 4.8 0.00 0.00 0.00 54 1022.9
20260502212318 15 311 3.2 4.8 0.00 0.00 0.00 54 1022.8
20260502211819 15 308 3.2 3.2 0.00 0.00 0.00 53 1022.7
20260502211320 15 230 1.6 3.2 0.00 0.00 0.00 54 1022.7
20260502210818 15 281 1.6 4.8 0.00 0.00 0.00 52 1022.7
20260502210318 15 311 3.2 4.8 0.00 0.00 0.00 52 1022.8
20260502205818 15 315 0.0 6.4 0.00 0.00 0.00 51 1022.8
20260502205319 15 315 3.2 6.4 0.00 0.00 0.00 51 1022.8
20260502204848 15 5 4.8 6.4 0.00 0.00 0.00 51 1022.8
20260502204327 15 10 1.6 4.8 0.00 0.00 0.00 52 1022.8
20260502203827 15 321 3.2 3.2 0.00 0.00 0.00 52 1022.8
20260502203342 15 294 1.6 4.8 0.00 0.00 0.00 52 1022.7
20260502202822 15 288 1.6 4.8 0.00 0.00 0.00 52 1022.7
20260502202321 15 286 1.6 4.8 0.00 0.00 0.00 53 1022.7
20260502201822 15 324 1.6 4.8 0.00 0.00 0.00 52 1022.8
20260502201322 15 313 0.0 4.8 0.00 0.00 0.00 52 1022.9
20260502200822 15 306 3.2 6.4 0.00 0.00 0.00 51 1022.9
20260502200321 15 297 4.8 6.4 0.00 0.00 0.00 50 1022.8
20260502195849 15 342 1.6 3.2 0.00 0.00 0.00 50 1022.8
20260502195326 15 309 1.6 3.2 0.00 0.00 0.00 51 1022.7
20260502194825 15 290 1.6 4.8 0.00 0.00 0.00 51 1022.9
20260502194326 15 323 3.2 4.8 0.00 0.00 0.00 51 1022.7
20260502193825 15 297 1.6 6.4 0.00 0.00 0.00 49 1022.7
20260502193326 15 301 1.6 6.4 0.00 0.00 0.00 50 1022.8
20260502192825 16 313 0.0 3.2 0.00 0.00 0.00 51 1022.7
20260502192342 16 313 1.6 4.8 0.00 0.00 0.00 51 1022.7
20260502191821 16 288 0.0 6.4 0.00 0.00 0.00 51 1022.7
20260502191323 16 298 4.8 6.4 0.00 0.00 0.00 50 1022.6
20260502190822 16 250 1.6 6.4 0.00 0.00 0.00 50 1022.6
20260502190321 16 317 3.2 6.4 0.00 0.00 0.00 48 1022.6
20260502185820 16 267 4.8 9.7 0.00 0.00 0.00 48 1022.5
20260502185320 16 279 4.8 9.7 0.00 0.00 0.00 47 1022.5
20260502184819 16 248 6.4 9.7 0.00 0.00 0.00 46 1022.5
20260502184313 16 283 6.4 11.3 0.00 0.00 0.00 47 1022.4
20260502183833 16 269 6.4 11.3 0.00 0.00 0.00 47 1022.5
20260502183332 16 288 4.8 11.3 0.00 0.00 0.00 46 1022.3
20260502182851 16 277 6.4 12.9 0.00 0.00 0.00 47 1022.3
20260502182348 16 275 8.0 12.9 0.00 0.00 0.00 46 1022.3
20260502181825 16 257 6.4 11.3 0.00 0.00 0.00 47 1022.2
20260502181324 17 259 6.4 12.9 0.00 0.00 0.00 46 1022.3
20260502180824 17 296 8.0 14.5 0.00 0.00 0.00 46 1022.2
20260502180323 17 298 6.4 14.5 0.00 0.00 0.00 46 1022.2
20260502170333 17 304 8.0 11.3 0.00 0.00 0.00 47 1022.2
20260502164328 18 313 6.4 11.3 0.00 0.00 0.00 45 1022.3
20260502163828 18 292 6.4 11.3 0.00 0.00 0.00 46 1022.3
20260502163328 18 309 6.4 12.9 0.00 0.00 0.00 45 1022.3
20260502162827 18 300 6.4 12.9 0.00 0.00 0.00 45 1022.3
20260502162324 18 287 6.4 11.3 0.00 0.00 0.00 45 1022.5
20260502161823 18 312 3.2 11.3 0.00 0.00 0.00 44 1022.5
20260502161323 19 294 4.8 8.0 0.00 0.00 0.00 43 1022.5
20260502160843 19 306 3.2 8.0 0.00 0.00 0.00 43 1022.5
20260502160323 19 341 6.4 8.0 0.00 0.00 0.00 43 1022.5
20260502151830 19 95 4.8 9.7 0.00 0.00 0.00 43 1022.9
20260502151328 19 117 4.8 12.9 0.00 0.00 0.00 44 1022.9
20260502150826 18 93 6.4 14.5 0.00 0.00 0.00 44 1023.0
20260502150326 19 85 6.4 11.3 0.00 0.00 0.00 43 1023.0
20260502130317 18 67 9.7 19.3 0.00 0.00 0.00 45 1024.3
20260502123329 18 92 9.7 17.7 0.00 0.00 0.00 46 1024.6
20260502122827 18 102 6.4 17.7 0.00 0.00 0.00 48 1024.6
20260502122327 18 93 8.0 17.7 0.00 0.00 0.00 47 1024.6
20260502121825 18 88 4.8 17.7 0.00 0.00 0.00 48 1024.8
20260502121324 18 105 9.7 14.5 0.00 0.00 0.00 47 1024.9
20260502120823 18 113 6.4 14.5 0.00 0.00 0.00 48 1024.9
20260502120343 18 134 8.0 14.5 0.00 0.00 0.00 47 1024.9
20260502115820 18 117 8.0 17.7 0.00 0.00 0.00 47 1025.0
20260502115341 17 96 9.7 17.7 0.00 0.00 0.00 49 1025.2
20260502114819 17 112 9.7 16.1 0.00 0.00 0.00 48 1025.1
20260502114319 17 106 9.7 17.7 0.00 0.00 0.00 48 1025.2
20260502113839 17 114 9.7 19.3 0.00 0.00 0.00 48 1025.3
20260502113338 17 134 11.3 22.5 0.00 0.00 0.00 49 1025.3
20260502112817 17 126 11.3 20.9 0.00 0.00 0.00 49 1025.3
20260502112317 17 60 11.3 20.9 0.00 0.00 0.00 48 1025.6
20260502111816 17 138 11.3 20.9 0.00 0.00 0.00 50 1025.6
20260502111315 17 32 12.9 19.3 0.00 0.00 0.00 49 1025.7
20260502110815 17 87 11.3 22.5 0.00 0.00 0.00 50 1025.7
20260502110335 17 80 12.9 20.9 0.00 0.00 0.00 50 1025.8
20260502105833 16 96 12.9 22.5 0.00 0.00 0.00 51 1025.9
20260502105332 16 104 16.1 22.5 0.00 0.00 0.00 50 1026.0
20260502104853 16 56 9.7 19.3 0.00 0.00 0.00 52 1026.0
20260502104332 17 97 12.9 20.9 0.00 0.00 0.00 53 1026.1
20260502103830 16 59 11.3 20.9 0.00 0.00 0.00 54 1026.2
20260502103328 16 95 11.3 17.7 0.00 0.00 0.00 55 1026.1
20260502102828 16 104 8.0 16.1 0.00 0.00 0.00 55 1026.3
20260502102321 16 111 11.3 20.9 0.00 0.00 0.00 53 1026.4
20260502101821 16 92 12.9 20.9 0.00 0.00 0.00 52 1026.3
20260502101319 16 79 8.0 12.9 0.00 0.00 0.00 54 1026.5
20260502100817 16 83 4.8 14.5 0.00 0.00 0.00 53 1026.5
20260502100318 16 84 6.4 14.5 0.00 0.00 0.00 56 1026.5
20260502091318 16 140 8.0 14.5 0.00 0.00 0.00 54 1026.8
20260502090817 16 153 4.8 9.7 0.00 0.00 0.00 54 1027.4
20260502090316 15 158 4.8 9.7 0.00 0.00 0.00 57 1027.0